When you browse on this site, cookies collect data to enhance your experience and personalize the content and advertising you see.
Visit our Privacy Policy to learn more. By continuing to use the site, you agree to this use of cookies and data.
  • în România
  • Lista ţărilor
  • Pe 7 zile
  • Temperatura apei
  • Hartă satelitară
  • Meteo pe hartă
  • Widget-uri
  • user-avatar
    Intrare

    Meteo pe oră la Saint-Leu-la-Foret

    Astăzi, 25 Iunie, Marţi

    Timp Temperatura Precipitaţii Vânt Presiune Umiditate
    00:00 +23°C° 0 mm 2 m/s 752 mmHg 89%
    01:00 +23°C° 0 mm 2 m/s 752 mmHg 90%
    02:00 +23°C° 0 mm 2 m/s 752 mmHg 92%
    03:00 +21°C° 0 mm 2 m/s 752 mmHg 93%
    04:00 +23°C° 0 mm 1 m/s 752 mmHg 91%
    05:00 +23°C° 0 mm 1 m/s 752 mmHg 90%
    06:00 +24°C° 0 mm 1 m/s 753 mmHg 87%
    07:00 +25°C° 0 mm 2 m/s 753 mmHg 83%
    08:00 +26°C° 0 mm 2 m/s 753 mmHg 79%
    09:00 +27°C° 0 mm 3 m/s 753 mmHg 75%
    10:00 +28°C° 0 mm 3 m/s 754 mmHg 67%
    11:00 +30°C° 0 mm 3 m/s 754 mmHg 58%
    12:00 +33°C° 0 mm 3 m/s 755 mmHg 50%
    13:00 +33°C° 0 mm 3 m/s 755 mmHg 50%
    14:00 +33°C° 0 mm 3 m/s 755 mmHg 50%
    15:00 +33°C° 0 mm 3 m/s 755 mmHg 51%
    16:00 +31°C° 0 mm 3 m/s 756 mmHg 56%
    17:00 +30°C° 0 mm 3 m/s 756 mmHg 61%
    18:00 +30°C° 0 mm 3 m/s 756 mmHg 66%
    19:00 +28°C° 0 mm 3 m/s 757 mmHg 72%
    20:00 +26°C° 0 mm 3 m/s 757 mmHg 79%
    21:00 +25°C° 0 mm 3 m/s 757 mmHg 85%
    22:00 +24°C° 0 mm 3 m/s 757 mmHg 85%
    23:00 +23°C° 0 mm 2 m/s 758 mmHg 85%

    Mâine, 26 Iunie, Miercuri

    Timp Temperatura Precipitaţii Vânt Presiune Umiditate
    00:00 +21°C° 0 mm 2 m/s 758 mmHg 86%
    01:00 +21°C° 0 mm 2 m/s 758 mmHg 86%
    02:00 +21°C° 0 mm 2 m/s 757 mmHg 86%
    03:00 +20°C° 0 mm 3 m/s 757 mmHg 87%
    04:00 +21°C° 0 mm 3 m/s 757 mmHg 86%
    05:00 +21°C° 0 mm 3 m/s 758 mmHg 85%
    06:00 +21°C° 0 mm 4 m/s 758 mmHg 84%
    07:00 +23°C° 0 mm 4 m/s 758 mmHg 80%
    08:00 +25°C° 0 mm 4 m/s 758 mmHg 75%
    09:00 +27°C° 0 mm 5 m/s 758 mmHg 70%
    10:00 +28°C° 0 mm 5 m/s 758 mmHg 67%
    11:00 +30°C° 0 mm 5 m/s 758 mmHg 63%
    12:00 +32°C° 0 mm 6 m/s 758 mmHg 60%
    13:00 +32°C° 0 mm 6 m/s 758 mmHg 60%
    14:00 +33°C° 0 mm 6 m/s 758 mmHg 60%
    15:00 +33°C° 0 mm 5 m/s 757 mmHg 60%
    16:00 +33°C° 0 mm 5 m/s 757 mmHg 63%
    17:00 +32°C° 0 mm 5 m/s 757 mmHg 66%
    18:00 +32°C° 0 mm 5 m/s 757 mmHg 69%
    19:00 +29°C° 0 mm 5 m/s 757 mmHg 72%
    20:00 +27°C° 0 mm 5 m/s 757 mmHg 76%
    21:00 +26°C° 0 mm 6 m/s 758 mmHg 79%
    22:00 +24°C° 0 mm 6 m/s 758 mmHg 80%
    23:00 +23°C° 0 mm 5 m/s 758 mmHg 81%

    Poimâine, 27 Iunie, Joi

    Timp Temperatura Precipitaţii Vânt Presiune Umiditate
    00:00 +22°C° 0 mm 5 m/s 758 mmHg 81%
    01:00 +22°C° 0 mm 5 m/s 758 mmHg 83%
    02:00 +21°C° 0 mm 5 m/s 758 mmHg 84%
    03:00 +21°C° 0 mm 5 m/s 758 mmHg 85%
    04:00 +21°C° 0 mm 5 m/s 758 mmHg 85%
    05:00 +21°C° 0 mm 5 m/s 758 mmHg 84%
    06:00 +21°C° 0 mm 5 m/s 758 mmHg 83%
    07:00 +22°C° 0 mm 5 m/s 758 mmHg 78%
    08:00 +25°C° 0 mm 5 m/s 758 mmHg 73%
    09:00 +26°C° 0 mm 6 m/s 758 mmHg 68%
    10:00 +27°C° 0 mm 6 m/s 758 mmHg 64%
    11:00 +29°C° 0 mm 6 m/s 758 mmHg 61%
    12:00 +30°C° 0 mm 6 m/s 759 mmHg 57%
    13:00 +30°C° 0 mm 6 m/s 758 mmHg 56%
    14:00 +30°C° 0 mm 6 m/s 758 mmHg 56%
    15:00 +32°C° 0 mm 6 m/s 758 mmHg 55%
    16:00 +30°C° 0 mm 6 m/s 758 mmHg 57%
    17:00 +28°C° 0 mm 6 m/s 758 mmHg 59%
    18:00 +27°C° 0 mm 6 m/s 758 mmHg 60%
    19:00 +26°C° 0 mm 6 m/s 758 mmHg 59%
    20:00 +23°C° 0 mm 6 m/s 758 mmHg 58%
    21:00 +22°C° 0 mm 5 m/s 758 mmHg 56%
    22:00 +21°C° 0 mm 5 m/s 758 mmHg 57%
    23:00 +21°C° 0 mm 5 m/s 758 mmHg 58%

    28 Iunie, Vineri

    Timp Temperatura Precipitaţii Vânt Presiune Umiditate
    00:00 +20°C° 0 mm 5 m/s 758 mmHg 59%
    01:00 +19°C° 0 mm 5 m/s 758 mmHg 63%
    02:00 +19°C° 0 mm 4 m/s 758 mmHg 67%
    03:00 +18°C° 0 mm 4 m/s 758 mmHg 71%
    04:00 +18°C° 0 mm 4 m/s 757 mmHg 71%
    05:00 +18°C° 0 mm 4 m/s 757 mmHg 71%
    06:00 +18°C° 0 mm 4 m/s 757 mmHg 71%
    07:00 +20°C° 0 mm 4 m/s 757 mmHg 66%
    08:00 +22°C° 0 mm 4 m/s 757 mmHg 61%
    09:00 +25°C° 0 mm 5 m/s 758 mmHg 57%
    10:00 +26°C° 0 mm 5 m/s 757 mmHg 53%
    11:00 +28°C° 0 mm 5 m/s 757 mmHg 48%
    12:00 +29°C° 0 mm 5 m/s 757 mmHg 44%
    13:00 +30°C° 0 mm 5 m/s 757 mmHg 43%
    14:00 +30°C° 0 mm 5 m/s 757 mmHg 43%
    15:00 +30°C° 0 mm 5 m/s 756 mmHg 42%
    16:00 +30°C° 0 mm 4 m/s 756 mmHg 47%
    17:00 +29°C° 0 mm 4 m/s 756 mmHg 51%
    18:00 +28°C° 0 mm 4 m/s 756 mmHg 56%
    19:00 +27°C° 0 mm 4 m/s 756 mmHg 61%
    20:00 +25°C° 0 mm 3 m/s 756 mmHg 66%
    21:00 +22°C° 0 mm 3 m/s 756 mmHg 71%
    22:00 +22°C° 0 mm 3 m/s 756 mmHg 73%
    23:00 +21°C° 0 mm 3 m/s 756 mmHg 74%

    29 Iunie, Sâmbătă

    Timp Temperatura Precipitaţii Vânt Presiune Umiditate
    00:00 +20°C° 0 mm 2 m/s 755 mmHg 75%
    01:00 +20°C° 0 mm 2 m/s 755 mmHg 74%
    02:00 +20°C° 0 mm 2 m/s 755 mmHg 73%
    03:00 +19°C° 0 mm 2 m/s 754 mmHg 73%
    04:00 +20°C° 0 mm 2 m/s 754 mmHg 69%
    05:00 +20°C° 0 mm 2 m/s 754 mmHg 65%
    06:00 +20°C° 0 mm 2 m/s 754 mmHg 61%
    07:00 +22°C° 0 mm 3 m/s 754 mmHg 57%
    08:00 +25°C° 0 mm 3 m/s 754 mmHg 52%
    09:00 +27°C° 0 mm 3 m/s 754 mmHg 47%
    10:00 +29°C° 0 mm 3 m/s 754 mmHg 44%
    11:00 +30°C° 0 mm 3 m/s 753 mmHg 40%
    12:00 +33°C° 0 mm 3 m/s 753 mmHg 36%
    13:00 +33°C° 0 mm 3 m/s 753 mmHg 36%
    14:00 +34°C° 0 mm 3 m/s 752 mmHg 37%
    15:00 +34°C° 0 mm 3 m/s 752 mmHg 37%
    16:00 +34°C° 0 mm 3 m/s 752 mmHg 41%
    17:00 +33°C° 0 mm 3 m/s 752 mmHg 46%
    18:00 +31°C° 0 mm 2 m/s 751 mmHg 51%
    19:00 +30°C° 0 mm 2 m/s 751 mmHg 56%
    20:00 +28°C° 0 mm 2 m/s 751 mmHg 61%
    21:00 +27°C° 0 mm 2 m/s 752 mmHg 66%
    22:00 +26°C° 0 mm 2 m/s 751 mmHg 68%
    23:00 +25°C° 0 mm 2 m/s 751 mmHg 71%

    30 Iunie, Duminică

    Timp Temperatura Precipitaţii Vânt Presiune Umiditate
    00:00 +25°C° 0 mm 2 m/s 751 mmHg 73%
    01:00 +24°C° 0 mm 2 m/s 751 mmHg 77%
    02:00 +23°C° 0 mm 2 m/s 751 mmHg 82%
    03:00 +21°C° 0 mm 3 m/s 751 mmHg 86%
    04:00 +21°C° 0 mm 3 m/s 752 mmHg 84%
    05:00 +21°C° 0 mm 3 m/s 752 mmHg 82%
    06:00 +20°C° 0 mm 4 m/s 753 mmHg 80%
    07:00 +22°C° 0 mm 4 m/s 753 mmHg 72%
    08:00 +24°C° 0 mm 3 m/s 754 mmHg 65%
    09:00 +25°C° 0 mm 3 m/s 754 mmHg 57%
    10:00 +26°C° 0.1 mm 3 m/s 754 mmHg 53%
    11:00 +27°C° 0.1 mm 3 m/s 754 mmHg 48%
    12:00 +28°C° 0.1 mm 3 m/s 754 mmHg 44%
    13:00 +28°C° 0.1 mm 4 m/s 755 mmHg 44%
    14:00 +28°C° 0.1 mm 4 m/s 755 mmHg 43%
    15:00 +28°C° 0.1 mm 4 m/s 755 mmHg 43%
    16:00 +27°C° 0 mm 3 m/s 754 mmHg 47%
    17:00 +26°C° 0 mm 3 m/s 754 mmHg 51%
    18:00 +25°C° 0 mm 3 m/s 754 mmHg 55%
    19:00 +24°C° 0 mm 3 m/s 755 mmHg 62%
    20:00 +21°C° 0 mm 3 m/s 755 mmHg 68%
    21:00 +20°C° 0 mm 3 m/s 755 mmHg 75%
    22:00 +19°C° 0 mm 2 m/s 755 mmHg 76%
    23:00 +18°C° 0 mm 2 m/s 755 mmHg 78%
    Arată mai mult